Regional Weather Roundup
Issued by NWS New Orleans/Baton Rouge, LA

Home | Current Version | Previous Version | Text Only | Print | Product List | Glossary Off
Versions: 1 2 3 4 5 6 7 8 9 10 11 12 13 14 15 16 17 18 19 20 21 22 23 24 25 26 27 28 29 30 31 32 33 34 35 36 37 38 39 40 41 42 43 44 45 46 47 48 49 50

538
ASUS44 KLIX 020307
RWRLIX
NEW ORLEANS REGIONAL WEATHER ROUNDUP
NATIONAL WEATHER SERVICE NEW ORLEANS LA
1000 PM CDT WED APR 01 2015

NOTE: "FAIR" INDICATES FEW OR NO CLOUDS BELOW 12,000 FEET WITH NO
      SIGNIFICANT WEATHER AND/OR OBSTRUCTIONS TO VISIBILITY.
      SKY/WX - SKY CONDITION AND SIGNIFICANT WEATHER.
      TMP - AIR TEMPERATURE.     DP    - DEWPOINT TEMPERATURE.
      RH  - RELATIVE HUMIDITY.   PRES  - PRESSURE.
      HI  - HEAT INDEX.          WCI   - WIND CHILL INDEX.

*  THESE STATIONS ARE NOT NWS OR FAA STATIONS AND ARE NOT UNDER
   NWS QUALITY CONTROL.

LAZ038-040-048-061>063-065>067-069-020400-
SOUTHEAST LOUISIANA

CITY           SKY/WX    TMP DP  RH WIND       PRES   REMARKS
N.O. AUDUBON     N/A     72  70  93 MISG        N/A
N.O. INTL ARPT CLOUDY    72  66  81 SE8       30.05R
N.O. LAKEFRONT CLOUDY    75  65  70 S9        30.06R
SLIDELL        CLOUDY    71  68  90 S7        30.05S
BATON ROUGE    CLOUDY    72  64  76 S10       30.03S
BOOTHVILLE     CLOUDY    73  70  90 SE9       30.08R
BELLE CHASSE   CLOUDY    72  66  81 S7        30.05R
BOGALUSA*        N/A     73  65  76 SE6       30.05F
GALLIANO*      MOCLDY    68  66  94 CALM      30.06F
NEW ROADS*       N/A     72  64  75 S5        30.03R
GONZALES*        N/A     71  66  85 S3        30.04S
HAMMOND*       CLOUDY    72  63  73 S6        30.06R
HOUMA*         MOCLDY    72  68  89 SE6       30.04F
PORT FOURCHON* CLEAR     75  70  83 SE5       30.09S

$$

MSZ070-080>082-020400-
SOUTHERN MISSISSIPPI

CITY           SKY/WX    TMP DP  RH WIND       PRES   REMARKS
MCCOMB         CLOUDY    68  62  81 S5        30.03R
GULFPORT       CLOUDY    72  68  87 S8        30.06S
BILOXI         CLOUDY    71  70  95 S6        30.07R
PASCAGOULA     CLOUDY    71  67  87 S5        30.08R

$$

COASTAL OBSERVATIONS
LAKE AND NEARSHORE STATIONS

STATION/POSITION TIME  TEMP    WIND        PRES    WAVE
                       AIR SEA DIR/SP/G            HT/PER
                 (UTC) (F)     (DEG/KT/KT) (MB)    (FT/S)
PASCAGOULA       0200   72     160/  6/ 10 1018.0
WAVELAND YACHT   0200   73 73  170/  8/ 10 1017.8
GRAND ISLE       0200   73 71  160/  6/  8 1017.6
SOUTHWEST PASS   0200   69 56  140/  7/  8 1018.3
NEW CANAL        0200   74     150/  4/  7 1017.6
SHELL BEACH      0200   72 73  140/  7/  8 1017.6

OFFSHORE STATIONS

STATION/POSITION TIME  TEMP    WIND        PRES    WAVE
                       AIR SEA DIR/SP/G            HT/PER
                 (UTC) (F)     (DEG/KT/KT) (MB)    (FT/S)
64 S DAUPHIN ISL 0250   73 73  170/ 16/ 17 1019.2    3/ 4

$$




USA.gov is the U.S. government's official web portal to all federal, state and local government web resources and services.